User: anonymous
Location: Delta State University
(33.7460°N, 90.7320°W)
Time: 20:29:58
(UTC-05:00)
Language:

Iridium 13 - Orbit

View from above orbital plane
View from above orbital plane
View from above satellite
View from above satellite

Ground track
Ground track

The orbit data is extracted from the following two-line orbital elements,

1 24840U 97030E   14203.22686295  .00000180  00000-0  57060-4 0  8605
2 24840 086.3940 073.7168 0002316 097.1312 039.2320 14.34216630894872
Epoch (UTC): 22 July 2014 05:26:40
Eccentricity: 0.0002316
inclination: 86.3940°
perigee height: 776 km
apogee height: 779 km
right ascension of ascending node: 73.7168°
argument of perigee: 97.1312°
revolutions per day: 14.34216630
mean anomaly at epoch: 39.2320°
orbit number at epoch: 89487

The dashed part of the orbit path shows where the satellite is in the earth's shadow,  

DLR